Regional Weather Roundup
Issued by NWS

Home | Current Version | Previous Version | Graphics & Text | Print | Product List | Glossary On
Versions: 1 2 3 4 5 6 7 8 9 10 11 12 13 14 15 16 17 18 19 20 21 22 23 24 25 26 27 28 29 30 31 32 33 34 35 36 37 38 39 40 41 42 43 44 45 46 47 48 49 50
000
ASUS45 KTFX 010219
RWRMT
MONTANA HOURLY WEATHER ROUNDUP
NATIONAL WEATHER SERVICE GREAT FALLS MT
719 PM MST SAT FEB 28 2015

NOTE: "FAIR" INDICATES FEW OR NO CLOUDS BELOW 12000 FEET WITH NO
SIGNIFICANT WEATHER AND/OR OBSTRUCTIONS TO VISIBILITY.

* THESE STATIONS ARE NOT UNDER NWS QUALITY CONTROL. THEY DO NOT
   REPORT WEATHER SUCH AS PRECIPITATION OR FOG.

MTZ001>007-043-010300-
WEST OF THE DIVIDE
CITY           SKY/WX    TMP DP  RH WIND       PRES   REMARKS
KALISPELL      CLEAR     28   5  37 CALM      30.14R
MISSOULA       CLEAR     28   9  45 N9        30.13R WCI  19
BUTTE          CLOUDY    18   7  62 CALM      30.04R
MULLAN PASS    CLEAR     18  -2  41 SE3       30.00R
* ANACONDA     CLEAR     14   3  61 SW5        N/A   WCI   6
* ESSEX        N/A       21   7  55 N1         N/A
* EUREKA APT   CLEAR     27   3  35 CALM      30.16R
* HAMILTON APT CLEAR     28   3  34 N9        30.09R WCI  19
* LIBBY APT    CLEAR     28   5  37 S3        30.16R
* LINCOLN      N/A       20  -1  39 NE6G15     N/A   WCI  12
* LOOKOUT PASS N/A       23   2  40 NE1        N/A
* POLSON       N/A       24  -2  32 NE1        N/A
* RONAN APT    CLEAR     30   7  38 N/A        N/A
* SEELEY LAKE  N/A       25   1  35 N/A        N/A
* THOMP F APT  CLEAR     19   7  59 N7G23      N/A   WCI  10
* YAAK HILL    N/A       36  -2  19 E1         N/A
$$

MTZ008-052>055-010300-
SOUTHWEST MONTANA
CITY           SKY/WX    TMP DP  RH WIND       PRES   REMARKS
BOZEMAN        MOCLDY    21  10  62 SW7       30.10R WCI  12
DILLON         CLEAR     18   5  57 NE15      30.02R WCI   4
* W YELLOWSTON CLEAR     18   5  57 NW2G8      N/A
* THREE FORKS  CLEAR     21   3  45 N/A        N/A
* BOULDER HILL N/A       10  -5  50 VRB7       N/A   WCI  -1
* MONIDA PASS  N/A       14   7  73 NW9        N/A   WCI   2
* RAYNOLDS PAS N/A        8 -32  13 VRB17      N/A   WCI -10
* WHITEHALL    N/A       22   4  46 NE9G16     N/A   WCI  12
* WISE RIVER   N/A       20   3  47 E11G19     N/A   WCI   8
$$

MTZ009>010-012-014-046-048-049-054-010300-
EAST SLOPES AND CENTRAL MONTANA
CITY           SKY/WX    TMP DP  RH WIND       PRES   REMARKS
CUT BANK       CLEAR     16   7  67 NW10      30.14R WCI   4
GREAT FALLS    PTCLDY    16   9  74 SW9       30.15R WCI   5
HELENA         PTCLDY   N/A N/A N/A N/A       30.16R
MALMSTROM AFB  PTCLDY    19  10  68 SW12      30.17R WCI   6
* CONRAD       CLEAR     21   9  60 NW6        N/A   WCI  13
* DEARBORN     N/A       16   5  62 SE2        N/A
* EAST GLACIER N/A       13   3  64 E3         N/A
* MONARCH      N/A        2  -7  65 S4         N/A
* PENDROY      N/A       14   3  61 NW8        N/A   WCI   3
* ROGERS PASS  N/A        6   0  76 NW4        N/A
* SWEET GRASS  N/A       18  13  81 NW14       N/A   WCI   4
* WHITE SULPH  N/A        9  -3  58 NW5G11     N/A
$$

MTZ011-013-016-021-035-040-045-047-050-051-010300-
NORTH CENTRAL MONTANA
CITY           SKY/WX    TMP DP  RH WIND       PRES   REMARKS
HAVRE          CLOUDY    23  10  57 W9        30.17R WCI  13
LEWISTOWN      CLEAR      5   0  80 SW10      30.12R WCI -10
* N BAR RANCH  CLEAR      9   1  70 NW12      30.09R WCI  -6
* CHINOOK      MOCLDY    25   9  50 W10       30.16S WCI  15
* FORT BENTON  CLEAR     19   7  59 W7        30.20R WCI  10
* CHESTER      N/A       22   8  55 NW6        N/A   WCI  14
* DENTON       N/A       13   4  67 SW9        N/A   WCI   1
* GEYSER       N/A       13   3  64 SW15       N/A   WCI  -3
* JUDITH GAP   N/A        9   4  80 NW12       N/A   WCI  -6
* LOMA         N/A       19   9  65 NW4        N/A
$$

MTZ017>020-022>027-061-062-010300-
NORTHEAST MONTANA
CITY           SKY/WX    TMP DP  RH WIND       PRES   REMARKS
GLASGOW        PTCLDY    19   9  65 W13       30.14R WCI   6
GLENDIVE       CLEAR      9   0  66 W9        30.16R WCI  -4
JORDAN         CLEAR     18  10  71 NW7       30.15R WCI   9
SIDNEY         CLEAR     12   3  67 SW9       30.18S
WOLF POINT     CLEAR     19   9  65 SW8       30.16R WCI   9
* BEAVER HILL  N/A       11   3  70 W4         N/A
* CIRCLE       N/A       14   8  77 W1         N/A
* LINDSAY DVD  N/A       10   2  70 W9         N/A   WCI  -3
* NAVAJO       N/A        9   1  70 W7         N/A   WCI  -2
* PLENTYWOOD A CLEAR     10   1  67 SW3       30.11S
* POPLAR APT   CLEAR     18   3  52 SW5       30.16R WCI  11
* SACO         N/A       19   5  54 SW6        N/A   WCI  11
* SCOBEY APT   CLEAR     14  -2  49 N/A        N/A
$$

MTZ028>042-056>058-010300-
SOUTHCENTRAL AND SOUTHEAST MONTANA
CITY           SKY/WX    TMP DP  RH WIND       PRES   REMARKS
BAKER          CLEAR      9   1  70 W7        30.13R WCI  -2
BILLINGS       FAIR      19   9  65 E6        30.11R WCI  11
LIVINGSTON     CLEAR     18   7  62 W5        30.07R WCI  11
MILES CITY     MOCLDY    19   9  65 W5        30.16R WCI  12
* BIG TIMBER A CLEAR     18   7  62 S5        30.08R WCI  11
* FORSYTH APT  CLEAR     21  12  68 CALM      30.17R
* LAUREL APT   CLEAR     18   1  47 N/A        N/A
* ROUNDUP APT  CLEAR     16   1  51 N/A        N/A
* ALZADA       N/A       16   8  71 W7         N/A   WCI   6
* HYSHAM       N/A       16   8  71 N1         N/A
* LAME DEER    N/A       11   6  80 S1         N/A
* REED POINT   N/A       23   9  55 SW2        N/A
* ROSCOE HILL  N/A       11  -2  55 S4         N/A
$$

REGIONAL REPORTS...DAKOTAS
CITY           SKY/WX    TMP DP  RH WIND       PRES   REMARKS
WILLISTON      PTCLDY     1  -4  79 W3        30.15R
DICKINSON      CLEAR      7   0  73 NW8       30.11R WCI  -6
BEACH          CLEAR      9   3  76 W6        30.14R WCI  -1
CROSBY         CLEAR      0  -4  83 SW8       30.13S WCI -14
TIOGA          CLEAR     -2  -2 100 W8        30.15R WCI -17
WATFORD CITY   CLEAR      3   0  87 SW7       30.13R WCI  -9
BISMARCK       CLOUDY    14   3  61 NW12      30.20R
GRAND FORKS    PTCLDY    12   5  73 W14       30.16R WCI  -4
FARGO          LGT SNOW  19  12  74 W20       30.17R WCI   3
BUFFALO SD     PTCLDY    12   5  73 NW6       30.06S WCI   2
RAPID CITY     CLEAR     16   9  74 N13       30.14R WCI   2
$$

REGIONAL REPORTS...WYOMING/IDAHO/WASHINGTON
CITY           SKY/WX    TMP DP  RH WIND       PRES   REMARKS
GILLETTE       MOCLDY    12   7  80 N5        30.08R WCI   4
SHERIDAN       PTCLDY    12   5  73 W7        30.12R WCI   1
CODY           CLOUDY    14   9  80 N5        30.04R WCI   6
YELLOWSTONE LA PTCLDY    16   1  51 VRB3      29.86R
SALMON         CLOUDY    30  12  47 N9        30.00R WCI  22
MULLAN PASS    CLEAR     18  -2  41 SE3       30.00S
SAND POINT     CLEAR     30  10  43 CALM      30.15R
SPOKANE        CLEAR     36   3  25 N5        30.12R WCI  32
$$

REGIONAL REPORTS...ALBERTA
CITY           SKY/WX    TMP DP  RH WIND       PRES   REMARKS
CALGARY        FAIR      23  14  68 W3        30.14R
LETHBRIDGE     MOCLDY    21  16  81 W12       30.17R WCI   9
MEDICINE HAT   MOCLDY    19  16  88 NW10      30.17R WCI   8
EDMONTON       MOCLDY    21   9  60 NW5       30.17R WCI  14
WATERTON GATE  N/A        9   3  76 SW2        N/A
CARDSTON       N/A       19  10  68 SW3        N/A
MILK RIVER     N/A       19  14  81 NW8        N/A   WCI   9
$$

REGIONAL REPORTS...SASKATCHEWAN
CITY           SKY/WX    TMP DP  RH WIND       PRES   REMARKS
SWIFT CURRENT  MOCLDY    12  10  92 W8        30.07R
REGINA         LGT SNOW   5   1  83 SW7       30.06S WCI  -7
VAL MARIE      N/A       19  14  81 W8         N/A   WCI   9
ASSINIBOIA     N/A       10   7  88 W7         N/A   WCI  -1
CORONACH       N/A        7   3  83 SW5        N/A   WCI  -2

$$




USA.gov is the U.S. government's official web portal to all federal, state and local government web resources and services.